Siemreap, Cambodia

12:10 PM +07 on June 26, 2017 (GMT +0700)
Siem Reap

Weather History for VDSR - September, 2014

Change the Weather History Date:

Thursday, September 4, 2014

  Actual Average Record
Temperature  
Mean Temperature 84 °F -  
Max Temperature 89 °F - - ()
Min Temperature 78 °F - - ()
Cooling Degree Days 18    
Growing Degree Days 34 (Base 50)    
Moisture  
Dew Point 75 °F    
Average Humidity 70    
Maximum Humidity 84    
Minimum Humidity 55    
Precipitation  
Precipitation 0.00 in - - ()
Sea Level Pressure  
Sea Level Pressure 29.74 in    
Wind  
Wind Speed 4 mph ()    
Max Wind Speed 14 mph    
Max Gust Speed -    
Visibility 6.1 miles    
Events      
T = Trace of Precipitation, MM = Missing Value Source: Averaged Metar Reports

Daily Weather History Graph

Daily Weather History Graph

Search for Another Location

Airport or City:

Trip Planner

Search our weather history database for the weather conditions in past years. The results will help you decide how hot, cold, wet, or windy it might be!

Date:

Astronomy

Sep. 04, 2014 Rise Set
Actual Time 5:53 AM +07 6:13 PM +07
Civil Twilight 5:31 AM +07 6:35 PM +07
Nautical Twilight 5:06 AM +07 7:00 PM +07
Astronomical Twilight 4:41 AM +07 7:25 PM +07
Moon 1:51 PM +07 (9/4) 12:43 AM +07 (9/4)
Length of Visible Light 13h 03m
Length of Day
12h 20m
Waxing Gibbous, 69% of the Moon is Illuminated
Sep 4
Waxing Gibbous
Sep 9
Full
Sep 16
Last Quarter
Sep 24
New
Oct 2
First Quarter

Hourly Weather History & Observations

Time (+07) Temp. Heat Index Dew Point Humidity Pressure Visibility Wind Dir Wind Speed Gust Speed Precip Events Conditions
12:00 AM 78.8 °F - 71.6 °F 78% 29.80 in 5.6 mi Calm Calm - N/A   Scattered Clouds
12:30 AM 78.8 °F - 71.6 °F 78% 29.80 in 5.6 mi Calm Calm - N/A   Scattered Clouds
1:00 AM 78.8 °F - 71.6 °F 78% 29.77 in 5.6 mi Calm Calm - N/A   Scattered Clouds
7:00 AM 80.6 °F 86.2 °F 75.2 °F 84% 29.77 in 6.2 mi NNW 3.5 mph - N/A   Scattered Clouds
7:30 AM 82.4 °F 90.9 °F 77.0 °F 84% 29.80 in 6.2 mi ENE 1.2 mph - N/A   Scattered Clouds
8:00 AM 84.2 °F 92.3 °F 75.2 °F 74% 29.80 in 6.2 mi ENE 1.2 mph - N/A   Scattered Clouds
9:00 AM 84.2 °F 92.3 °F 75.2 °F 74% 29.80 in 6.2 mi WNW 8.1 mph - N/A   Mostly Cloudy
9:30 AM 86.0 °F 95.1 °F 75.2 °F 70% 29.80 in 6.2 mi WNW 8.1 mph - N/A   Scattered Clouds
10:00 AM 87.8 °F 97.6 °F 75.2 °F 66% 29.80 in 6.2 mi NW 8.1 mph - N/A   Scattered Clouds
11:00 AM 87.8 °F 97.6 °F 75.2 °F 66% 29.80 in 6.2 mi West 2.3 mph - N/A   Scattered Clouds
12:00 PM 89.6 °F 99.8 °F 75.2 °F 62% 29.77 in 6.2 mi West 8.1 mph - N/A   Scattered Clouds
12:30 PM 89.6 °F 99.8 °F 75.2 °F 62% 29.74 in 6.2 mi WNW 12.7 mph - N/A   Scattered Clouds
1:00 PM 87.8 °F 95.6 °F 73.4 °F 62% 29.74 in 6.2 mi West 10.4 mph - N/A   Scattered Clouds
1:30 PM 89.6 °F 98.2 °F 73.4 °F 59% 29.74 in 6.2 mi WNW 13.8 mph - N/A   Scattered Clouds
2:00 PM 89.6 °F 98.2 °F 73.4 °F 59% 29.71 in 6.2 mi West 10.4 mph - N/A   Scattered Clouds
3:00 PM 89.6 °F 98.2 °F 73.4 °F 59% 29.68 in 6.2 mi WNW 5.8 mph - N/A   Scattered Clouds
4:00 PM 89.6 °F 98.2 °F 73.4 °F 59% 29.65 in 6.2 mi WNW 5.8 mph - N/A   Scattered Clouds
4:30 PM 89.6 °F 98.2 °F 73.4 °F 59% 29.65 in 6.2 mi WNW 8.1 mph - N/A   Scattered Clouds
5:00 PM 89.6 °F 96.2 °F 71.6 °F 55% 29.65 in 6.2 mi West 8.1 mph - N/A   Scattered Clouds
5:30 PM 87.8 °F 93.8 °F 71.6 °F 58% 29.68 in 6.2 mi West 8.1 mph - N/A   Scattered Clouds
6:00 PM 87.8 °F 95.6 °F 73.4 °F 62% 29.68 in 6.2 mi WSW 5.8 mph - N/A   Scattered Clouds
6:30 PM 86.0 °F 95.1 °F 75.2 °F 70% 29.68 in 6.2 mi WSW 4.6 mph - N/A   Scattered Clouds
7:00 PM 84.2 °F 94.1 °F 77.0 °F 79% 29.71 in 6.2 mi SSW 4.6 mph - N/A   Scattered Clouds
7:30 PM 84.2 °F 94.1 °F 77.0 °F 79% 29.71 in 6.2 mi SSW 4.6 mph - N/A   Scattered Clouds
8:00 PM 84.2 °F 94.1 °F 77.0 °F 79% 29.71 in 6.2 mi SSW 2.3 mph - N/A   Scattered Clouds
8:30 PM 84.2 °F 94.1 °F 77.0 °F 79% 29.71 in 6.2 mi WSW 3.5 mph - N/A   Scattered Clouds
9:00 PM 84.2 °F 92.3 °F 75.2 °F 74% 29.74 in 6.2 mi WSW 5.8 mph - N/A   Scattered Clouds
9:30 PM 84.2 °F 92.3 °F 75.2 °F 74% 29.74 in 6.2 mi WSW 5.8 mph - N/A   Scattered Clouds
10:00 PM 84.2 °F 92.3 °F 75.2 °F 74% 29.74 in 6.2 mi WSW 5.8 mph - N/A   Scattered Clouds
10:30 PM 82.4 °F 89.5 °F 75.2 °F 79% 29.74 in 6.2 mi WSW 8.1 mph - N/A   Scattered Clouds
11:00 PM 82.4 °F 89.5 °F 75.2 °F 79% 29.74 in 6.2 mi WSW 9.2 mph - N/A   Scattered Clouds
11:30 PM 82.4 °F 89.5 °F 75.2 °F 79% 29.74 in 6.2 mi WSW 4.6 mph - N/A   Scattered Clouds